Location: Caltech
(34.1382°N, 118.1253°W)
Time: 07:16:17
(UTC-07:00)

Iridium 21 - Visible Passes

Search period start: 01 October 2014 00:00
Search period end: 11 October 2014 00:00
Orbit: 776 x 779 km, 86.4° (Epoch: 30 September)

Date Brightness Start Highest point End Pass type
(mag) Time Alt. Az. Time Alt. Az. Time Alt. Az.
01 Oct 6.4 06:07:02 10° N 06:12:09 56° E 06:17:13 10° SSE visible
01 Oct 6.2 18:59:40 10° SSW 19:04:48 62° W 19:09:58 10° N visible
02 Oct 7.7 05:34:01 10° NNE 05:38:30 29° E 05:42:57 10° SE visible
02 Oct 9.0 20:11:16 10° W 20:12:28 11° WNW 20:13:40 10° WNW visible
03 Oct 8.7 05:01:49 10° NE 05:04:44 15° ENE 05:07:38 10° ESE visible
03 Oct 8.3 19:34:43 10° SW 19:38:38 22° W 19:42:35 10° NNW visible
04 Oct 5.6 06:07:01 10° N 06:12:15 84° E 06:17:27 10° S visible
04 Oct 7.1 19:00:04 10° SSW 19:04:57 41° W 19:09:51 10° NNW visible
05 Oct 6.9 05:33:45 10° NNE 05:38:41 42° E 05:43:35 10° SSE visible
06 Oct 8.0 05:00:58 10° NNE 05:04:59 22° E 05:08:59 10° SE visible
06 Oct 8.7 19:36:08 10° WSW 19:38:54 14° WNW 19:41:41 10° NW visible
07 Oct 8.8 04:29:38 10° ENE 04:31:10 11° ENE 04:32:41 10° E visible
07 Oct 5.5 06:07:09 10° N 06:12:19 66° W 06:17:27 10° S visible
07 Oct 7.9 19:00:44 10° SW 19:05:07 28° W 19:09:33 10° NNW visible
08 Oct 6.0 05:33:38 10° N 05:38:49 64° E 05:43:57 10° SSE visible
09 Oct 7.3 05:00:32 10° NNE 05:05:12 33° E 05:09:50 10° SSE visible
10 Oct 8.3 04:28:05 10° NE 04:31:27 17° ENE 04:34:48 10° ESE visible
10 Oct 5.8 06:07:26 10° NNW 06:12:20 43° W 06:17:13 10° SSW visible
10 Oct 8.5 19:01:45 10° WSW 19:05:21 19° W 19:08:58 10° NW visible
